| time (UTC) | temp C | wind direction | speed KPH | gust KPH | rain 1hr cm | rain 24hr cm | rain mn cm | humidity % | barometer mb |
| 20260506115042 | 12 | 142 | 0.0 | 0.0 | 0.00 | 0.00 | 0.00 | 92 | 1019.4 |
| 20260506114539 | 12 | 142 | 0.0 | 0.0 | 0.00 | 0.00 | 0.00 | 92 | 1019.6 |
| 20260506114037 | 11 | 141 | 0.0 | 0.0 | 0.00 | 0.00 | 0.00 | 92 | 1019.5 |
| 20260506113535 | 11 | 141 | 0.0 | 0.0 | 0.00 | 0.00 | 0.00 | 92 | 1019.3 |
| 20260506113032 | 11 | 141 | 0.0 | 0.0 | 0.00 | 0.00 | 0.00 | 92 | 1019.4 |
| 20260506112528 | 11 | 141 | 0.0 | 0.0 | 0.00 | 0.00 | 0.00 | 92 | 1019.3 |
| 20260506112026 | 11 | 141 | 0.0 | 0.0 | 0.00 | 0.00 | 0.00 | 92 | 1019.4 |
| 20260506111524 | 11 | 140 | 0.0 | 0.0 | 0.00 | 0.00 | 0.00 | 92 | 1019.4 |
| 20260506111021 | 11 | 140 | 0.0 | 0.0 | 0.00 | 0.00 | 0.00 | 92 | 1019.2 |
| 20260506110519 | 11 | 139 | 0.0 | 0.0 | 0.00 | 0.00 | 0.00 | 92 | 1019.3 |
| 20260506110015 | 11 | 139 | 0.0 | 0.0 | 0.00 | 0.00 | 0.00 | 92 | 1019.3 |
| 20260506105511 | 11 | 138 | 0.0 | 0.0 | 0.00 | 0.00 | 0.00 | 92 | 1019.2 |
| 20260506105009 | 11 | 142 | 0.0 | 0.0 | 0.00 | 0.00 | 0.00 | 92 | 1019.3 |
| 20260506104507 | 11 | 142 | 0.0 | 0.0 | 0.00 | 0.00 | 0.00 | 92 | 1019.0 |
| 20260506104005 | 12 | 138 | 0.0 | 0.0 | 0.00 | 0.00 | 0.00 | 92 | 1019.1 |
| 20260506103501 | 12 | 143 | 0.0 | 0.0 | 0.00 | 0.00 | 0.00 | 92 | 1019.2 |
| 20260506102958 | 12 | 142 | 0.0 | 1.6 | 0.00 | 0.00 | 0.00 | 92 | 1019.1 |
| 20260506102456 | 12 | 145 | 1.6 | 1.6 | 0.00 | 0.00 | 0.00 | 92 | 1019.0 |
| 20260506101953 | 12 | 147 | 0.0 | 1.6 | 0.00 | 0.00 | 0.00 | 92 | 1019.0 |
| 20260506101450 | 12 | 145 | 0.0 | 0.0 | 0.00 | 0.00 | 0.00 | 92 | 1019.0 |
| 20260506100947 | 12 | 143 | 0.0 | 0.0 | 0.00 | 0.00 | 0.00 | 92 | 1019.0 |
| 20260506100446 | 12 | 143 | 0.0 | 0.0 | 0.00 | 0.00 | 0.00 | 92 | 1019.0 |
| 20260506095943 | 12 | 145 | 0.0 | 0.0 | 0.00 | 0.00 | 0.00 | 91 | 1019.1 |
| 20260506095442 | 12 | 144 | 0.0 | 0.0 | 0.00 | 0.00 | 0.00 | 91 | 1019.1 |
| 20260506094937 | 12 | 145 | 0.0 | 1.6 | 0.00 | 0.00 | 0.00 | 91 | 1019.2 |
| 20260506094436 | 12 | 145 | 0.0 | 1.6 | 0.00 | 0.00 | 0.00 | 91 | 1019.0 |
| 20260506093933 | 12 | 145 | 0.0 | 0.0 | 0.00 | 0.00 | 0.00 | 91 | 1019.0 |
| 20260506093431 | 12 | 146 | 0.0 | 1.6 | 0.00 | 0.00 | 0.00 | 91 | 1019.2 |
| 20260506092928 | 12 | 142 | 0.0 | 1.6 | 0.00 | 0.00 | 0.00 | 91 | 1018.8 |
| 20260506092426 | 12 | 145 | 0.0 | 1.6 | 0.00 | 0.00 | 0.00 | 91 | 1018.9 |
| 20260506091923 | 12 | 141 | 0.0 | 0.0 | 0.00 | 0.00 | 0.00 | 90 | 1018.9 |
| 20260506091421 | 12 | 142 | 0.0 | 1.6 | 0.00 | 0.00 | 0.00 | 90 | 1019.0 |
| 20260506090918 | 12 | 141 | 0.0 | 1.6 | 0.00 | 0.00 | 0.00 | 90 | 1019.1 |
| 20260506090415 | 12 | 142 | 0.0 | 0.0 | 0.00 | 0.00 | 0.00 | 90 | 1018.8 |
| 20260506085912 | 12 | 145 | 0.0 | 1.6 | 0.00 | 0.00 | 0.00 | 90 | 1019.0 |
| 20260506085409 | 12 | 144 | 0.0 | 1.6 | 0.00 | 0.00 | 0.00 | 90 | 1018.9 |
| 20260506084905 | 12 | 150 | 1.6 | 1.6 | 0.00 | 0.00 | 0.00 | 89 | 1019.0 |
| 20260506084402 | 12 | 147 | 1.6 | 3.2 | 0.00 | 0.00 | 0.00 | 89 | 1019.1 |
| 20260506083858 | 12 | 143 | 0.0 | 1.6 | 0.00 | 0.00 | 0.00 | 89 | 1019.1 |
| 20260506083356 | 12 | 153 | 0.0 | 3.2 | 0.00 | 0.00 | 0.00 | 89 | 1018.9 |
| 20260506082853 | 12 | 150 | 1.6 | 3.2 | 0.00 | 0.00 | 0.00 | 89 | 1019.0 |
| 20260506082349 | 12 | 144 | 0.0 | 4.8 | 0.00 | 0.00 | 0.00 | 89 | 1019.1 |
| 20260506081845 | 12 | 144 | 1.6 | 3.2 | 0.00 | 0.00 | 0.00 | 89 | 1019.0 |
| 20260506081343 | 12 | 143 | 0.0 | 3.2 | 0.00 | 0.00 | 0.00 | 89 | 1019.1 |
| 20260506080835 | 12 | 145 | 1.6 | 1.6 | 0.00 | 0.00 | 0.00 | 89 | 1019.0 |
| 20260506080331 | 12 | 144 | 0.0 | 3.2 | 0.00 | 0.00 | 0.00 | 89 | 1019.2 |
| 20260506073316 | 12 | 141 | 0.0 | 1.6 | 0.00 | 0.00 | 0.00 | 88 | 1018.8 |
| 20260506072812 | 12 | 155 | 0.0 | 3.2 | 0.00 | 0.00 | 0.00 | 88 | 1018.8 |
| 20260506072310 | 12 | 145 | 0.0 | 1.6 | 0.00 | 0.00 | 0.00 | 88 | 1018.9 |
| 20260506071808 | 12 | 145 | 0.0 | 1.6 | 0.00 | 0.00 | 0.00 | 88 | 1018.8 |
| 20260506071306 | 12 | 148 | 1.6 | 4.8 | 0.00 | 0.00 | 0.00 | 88 | 1018.6 |
| 20260506070802 | 12 | 143 | 1.6 | 3.2 | 0.00 | 0.00 | 0.00 | 88 | 1018.6 |
| 20260506070259 | 12 | 140 | 0.0 | 1.6 | 0.00 | 0.00 | 0.00 | 88 | 1018.8 |
| 20260506062236 | 12 | 195 | 1.6 | 3.2 | 0.00 | 0.25 | 0.25 | 89 | 1018.4 |
| 20260506061732 | 12 | 211 | 1.6 | 3.2 | 0.00 | 0.25 | 0.25 | 89 | 1018.3 |
| 20260506061230 | 12 | 177 | 0.0 | 1.6 | 0.00 | 0.25 | 0.25 | 88 | 1018.4 |
| 20260506060728 | 13 | 182 | 1.6 | 4.8 | 0.00 | 0.25 | 0.25 | 88 | 1018.4 |
| 20260506060225 | 13 | 198 | 1.6 | 1.6 | 0.00 | 0.25 | 0.25 | 88 | 1018.2 |
| 20260506051157 | 13 | 179 | 0.0 | 4.8 | 0.00 | 0.25 | 0.25 | 87 | 1017.9 |
| 20260506050655 | 13 | 185 | 1.6 | 3.2 | 0.00 | 0.25 | 0.25 | 87 | 1017.9 |
| 20260506050152 | 13 | 179 | 0.0 | 1.6 | 0.00 | 0.25 | 0.25 | 87 | 1018.0 |
| 20260506044643 | 13 | 195 | 0.0 | 3.2 | 0.00 | 0.25 | 0.25 | 88 | 1017.6 |
| 20260506044140 | 13 | 185 | 1.6 | 4.8 | 0.00 | 0.25 | 0.25 | 89 | 1017.6 |
| 20260506043637 | 13 | 200 | 1.6 | 3.2 | 0.00 | 0.25 | 0.25 | 89 | 1017.9 |
| 20260506043135 | 13 | 177 | 0.0 | 4.8 | 0.00 | 0.25 | 0.25 | 89 | 1017.9 |
| 20260506042634 | 13 | 190 | 0.0 | 1.6 | 0.00 | 0.25 | 0.25 | 89 | 1017.8 |
| 20260506042131 | 13 | 204 | 1.6 | 3.2 | 0.00 | 0.25 | 0.25 | 89 | 1017.4 |
| 20260506041630 | 13 | 182 | 1.6 | 4.8 | 0.00 | 0.25 | 0.25 | 88 | 1017.6 |
| 20260506041126 | 13 | 165 | 3.2 | 3.2 | 0.00 | 0.25 | 0.25 | 88 | 1017.4 |
| 20260506040624 | 13 | 167 | 1.6 | 3.2 | 0.00 | 0.25 | 0.25 | 88 | 1017.4 |
| 20260506040120 | 13 | 194 | 1.6 | 4.8 | 0.00 | 0.25 | 0.25 | 88 | 1017.1 |
| 20260506035617 | 13 | 185 | 0.0 | 1.6 | 0.00 | 0.25 | 0.25 | 88 | 1017.0 |
| 20260506035114 | 13 | 228 | 0.0 | 3.2 | 0.00 | 0.25 | 0.25 | 87 | 1017.0 |
| 20260506034611 | 13 | 202 | 1.6 | 4.8 | 0.00 | 0.25 | 0.25 | 87 | 1016.8 |
| 20260506034108 | 13 | 183 | 1.6 | 6.4 | 0.00 | 0.25 | 0.25 | 87 | 1016.9 |
| 20260506033605 | 13 | 199 | 1.6 | 3.2 | 0.00 | 0.25 | 0.25 | 87 | 1016.8 |
| 20260506033102 | 13 | 188 | 1.6 | 4.8 | 0.00 | 0.25 | 0.25 | 87 | 1016.6 |
| 20260506032600 | 13 | 235 | 1.6 | 1.6 | 0.00 | 0.25 | 0.25 | 87 | 1016.6 |
| 20260506032056 | 13 | 194 | 1.6 | 3.2 | 0.00 | 0.25 | 0.25 | 87 | 1016.7 |
| 20260506031554 | 13 | 176 | 0.0 | 3.2 | 0.00 | 0.25 | 0.25 | 86 | 1016.6 |
| 20260506031050 | 13 | 205 | 1.6 | 3.2 | 0.00 | 0.25 | 0.25 | 86 | 1016.6 |
| 20260506030549 | 13 | 207 | 3.2 | 4.8 | 0.00 | 0.25 | 0.25 | 86 | 1016.4 |
| 20260506030046 | 13 | 168 | 0.0 | 1.6 | 0.00 | 0.25 | 0.25 | 86 | 1016.6 |
| 20260506025543 | 13 | 251 | 4.8 | 6.4 | 0.00 | 0.25 | 0.25 | 86 | 1016.5 |
| 20260506025038 | 13 | 191 | 1.6 | 4.8 | 0.00 | 0.25 | 0.25 | 86 | 1016.3 |
| 20260506024536 | 13 | 180 | 0.0 | 3.2 | 0.00 | 0.25 | 0.25 | 85 | 1016.3 |
| 20260506024032 | 14 | 168 | 1.6 | 3.2 | 0.00 | 0.25 | 0.25 | 85 | 1016.3 |
| 20260506023528 | 14 | 292 | 1.6 | 6.4 | 0.00 | 0.25 | 0.25 | 85 | 1016.5 |
| 20260506023026 | 14 | 199 | 1.6 | 4.8 | 0.00 | 0.25 | 0.25 | 84 | 1016.1 |
| 20260506022523 | 14 | 214 | 3.2 | 3.2 | 0.00 | 0.25 | 0.25 | 84 | 1016.0 |
| 20260506022021 | 14 | 185 | 3.2 | 6.4 | 0.00 | 0.25 | 0.25 | 83 | 1015.8 |
| 20260506021518 | 15 | 159 | 3.2 | 6.4 | 0.00 | 0.25 | 0.25 | 83 | 1015.9 |
| 20260506021015 | 15 | 220 | 3.2 | 4.8 | 0.00 | 0.25 | 0.25 | 82 | 1016.1 |
| 20260506020513 | 15 | 256 | 1.6 | 3.2 | 0.00 | 0.25 | 0.25 | 81 | 1016.2 |
| 20260506020010 | 15 | 187 | 1.6 | 3.2 | 0.00 | 0.25 | 0.25 | 81 | 1015.7 |
| 20260506015507 | 15 | 209 | 1.6 | 3.2 | 0.00 | 0.25 | 0.25 | 80 | 1015.9 |
| 20260506015004 | 15 | 64 | 1.6 | 1.6 | 0.00 | 0.25 | 0.25 | 80 | 1015.8 |
| 20260506014502 | 15 | 188 | 3.2 | 4.8 | 0.00 | 0.25 | 0.25 | 79 | 1016.0 |
| 20260506013957 | 16 | 167 | 3.2 | 6.4 | 0.00 | 0.25 | 0.25 | 77 | 1015.9 |
| 20260506013455 | 16 | 250 | 1.6 | 4.8 | 0.00 | 0.25 | 0.25 | 77 | 1016.1 |
| 20260506012951 | 16 | 207 | 1.6 | 9.7 | 0.00 | 0.25 | 0.25 | 77 | 1016.1 |
| 20260506012448 | 16 | 166 | 1.6 | 4.8 | 0.00 | 0.25 | 0.25 | 77 | 1016.1 |
| 20260506011945 | 16 | 202 | 1.6 | 4.8 | 0.00 | 0.25 | 0.25 | 77 | 1015.8 |
| 20260506011442 | 16 | 191 | 4.8 | 6.4 | 0.00 | 0.25 | 0.25 | 75 | 1015.8 |
| 20260506010939 | 16 | 281 | 3.2 | 4.8 | 0.00 | 0.25 | 0.25 | 75 | 1015.9 |
| 20260506010438 | 16 | 221 | 3.2 | 4.8 | 0.00 | 0.25 | 0.25 | 75 | 1016.0 |
| 20260506005933 | 17 | 228 | 1.6 | 6.4 | 0.00 | 0.25 | 0.25 | 76 | 1015.9 |
| 20260506005432 | 17 | 210 | 6.4 | 9.7 | 0.00 | 0.25 | 0.25 | 75 | 1016.0 |
| 20260506004926 | 17 | 130 | 0.0 | 4.8 | 0.00 | 0.25 | 0.25 | 75 | 1015.8 |
| 20260506004425 | 17 | 145 | 1.6 | 4.8 | 0.00 | 0.25 | 0.25 | 74 | 1015.7 |
| 20260506003920 | 17 | 168 | 1.6 | 4.8 | 0.00 | 0.25 | 0.25 | 75 | 1015.7 |
| 20260506003417 | 17 | 233 | 1.6 | 6.4 | 0.00 | 0.25 | 0.25 | 76 | 1015.8 |
| 20260506002914 | 16 | 231 | 3.2 | 6.4 | 0.00 | 0.25 | 0.25 | 76 | 1015.8 |
| 20260506002410 | 17 | 341 | 3.2 | 6.4 | 0.00 | 0.25 | 0.25 | 76 | 1015.6 |
| 20260506001905 | 16 | 221 | 3.2 | 6.4 | 0.00 | 0.25 | 0.25 | 78 | 1015.8 |
| 20260506001403 | 16 | 226 | 3.2 | 4.8 | 0.00 | 0.25 | 0.25 | 78 | 1015.4 |
| 20260506000900 | 16 | 189 | 3.2 | 4.8 | 0.00 | 0.25 | 0.25 | 78 | 1015.5 |
| 20260506000358 | 16 | 202 | 4.8 | 11.3 | 0.00 | 0.25 | 0.25 | 76 | 1015.8 |
| 20260505235854 | 17 | 248 | 3.2 | 6.4 | 0.00 | 0.25 | 0.25 | 76 | 1015.8 |
| 20260505235352 | 16 | 204 | 1.6 | 3.2 | 0.00 | 0.25 | 0.25 | 76 | 1015.5 |
| 20260505234848 | 16 | 176 | 1.6 | 6.4 | 0.00 | 0.25 | 0.25 | 75 | 1015.6 |
| 20260505234346 | 16 | 186 | 1.6 | 6.4 | 0.00 | 0.25 | 0.25 | 76 | 1015.6 |
| 20260505233842 | 16 | 206 | 3.2 | 6.4 | 0.00 | 0.25 | 0.25 | 75 | 1015.6 |
| 20260505233341 | 16 | 224 | 3.2 | 4.8 | 0.00 | 0.25 | 0.25 | 75 | 1015.7 |
| 20260505232838 | 17 | 259 | 6.4 | 9.7 | 0.00 | 0.25 | 0.25 | 75 | 1015.7 |
| 20260505232336 | 17 | 114 | 0.0 | 4.8 | 0.00 | 0.25 | 0.25 | 75 | 1015.7 |
| 20260505231832 | 17 | 224 | 1.6 | 4.8 | 0.00 | 0.25 | 0.25 | 75 | 1015.6 |
| 20260505231330 | 17 | 252 | 3.2 | 9.7 | 0.00 | 0.25 | 0.25 | 74 | 1015.6 |
| 20260505230828 | 17 | 184 | 3.2 | 6.4 | 0.00 | 0.25 | 0.25 | 73 | 1015.5 |
| 20260505230325 | 17 | 190 | 3.2 | 6.4 | 0.00 | 0.25 | 0.25 | 73 | 1015.4 |
| 20260505225821 | 17 | 161 | 1.6 | 9.7 | 0.00 | 0.25 | 0.25 | 72 | 1015.5 |
| 20260505225319 | 17 | 212 | 3.2 | 4.8 | 0.00 | 0.25 | 0.25 | 74 | 1015.6 |
| 20260505224813 | 17 | 206 | 3.2 | 9.7 | 0.00 | 0.25 | 0.25 | 74 | 1015.5 |
| 20260505224312 | 17 | 239 | 4.8 | 6.4 | 0.00 | 0.25 | 0.25 | 75 | 1015.5 |
| 20260505223808 | 16 | 182 | 3.2 | 9.7 | 0.00 | 0.25 | 0.25 | 76 | 1015.6 |
| 20260505223306 | 17 | 198 | 1.6 | 9.7 | 0.00 | 0.25 | 0.25 | 77 | 1015.5 |
| 20260505222801 | 17 | 192 | 3.2 | 4.8 | 0.00 | 0.25 | 0.25 | 76 | 1015.7 |
| 20260505222257 | 17 | 198 | 1.6 | 6.4 | 0.00 | 0.25 | 0.25 | 76 | 1015.8 |
| 20260505221755 | 17 | 201 | 4.8 | 9.7 | 0.00 | 0.25 | 0.25 | 74 | 1015.8 |
| 20260505221251 | 17 | 211 | 3.2 | 4.8 | 0.00 | 0.25 | 0.25 | 75 | 1015.9 |
| 20260505220748 | 17 | 194 | 3.2 | 9.7 | 0.00 | 0.25 | 0.25 | 74 | 1015.8 |
| 20260505220245 | 17 | 174 | 1.6 | 6.4 | 0.00 | 0.25 | 0.25 | 76 | 1015.8 |
| 20260505215744 | 17 | 252 | 3.2 | 6.4 | 0.00 | 0.25 | 0.25 | 76 | 1015.9 |
| 20260505215241 | 17 | 167 | 3.2 | 11.3 | 0.00 | 0.25 | 0.25 | 75 | 1015.9 |
| 20260505214739 | 17 | 174 | 1.6 | 4.8 | 0.00 | 0.25 | 0.25 | 75 | 1015.9 |
| 20260505214236 | 17 | 180 | 3.2 | 4.8 | 0.00 | 0.25 | 0.25 | 74 | 1015.9 |
| 20260505213733 | 17 | 199 | 3.2 | 9.7 | 0.00 | 0.25 | 0.25 | 74 | 1016.2 |
| 20260505213230 | 17 | 163 | 1.6 | 3.2 | 0.00 | 0.25 | 0.25 | 74 | 1016.0 |
| 20260505212726 | 17 | 179 | 1.6 | 9.7 | 0.00 | 0.25 | 0.25 | 73 | 1016.2 |
| 20260505212224 | 18 | 108 | 3.2 | 6.4 | 0.00 | 0.25 | 0.25 | 73 | 1016.1 |
| 20260505211721 | 17 | 155 | 3.2 | 6.4 | 0.00 | 0.25 | 0.25 | 73 | 1016.1 |
| 20260505211218 | 17 | 231 | 3.2 | 9.7 | 0.00 | 0.25 | 0.25 | 74 | 1016.3 |
| 20260505210714 | 17 | 195 | 1.6 | 3.2 | 0.00 | 0.25 | 0.25 | 74 | 1016.2 |
| 20260505210211 | 17 | 187 | 1.6 | 3.2 | 0.00 | 0.25 | 0.25 | 75 | 1016.0 |
| 20260505205709 | 17 | 131 | 3.2 | 4.8 | 0.00 | 0.25 | 0.25 | 74 | 1016.1 |
| 20260505205207 | 17 | 249 | 3.2 | 6.4 | 0.00 | 0.25 | 0.25 | 74 | 1016.3 |
| 20260505204703 | 17 | 218 | 1.6 | 4.8 | 0.00 | 0.25 | 0.25 | 74 | 1016.3 |
| 20260505204201 | 17 | 139 | 3.2 | 6.4 | 0.00 | 0.25 | 0.25 | 74 | 1016.0 |
| 20260505203658 | 18 | 147 | 0.0 | 4.8 | 0.00 | 0.25 | 0.25 | 73 | 1016.0 |
| 20260505203154 | 18 | 199 | 3.2 | 4.8 | 0.00 | 0.25 | 0.25 | 72 | 1016.0 |
| 20260505202650 | 18 | 178 | 0.0 | 9.7 | 0.00 | 0.25 | 0.25 | 72 | 1016.1 |
| 20260505202147 | 17 | 194 | 3.2 | 4.8 | 0.00 | 0.25 | 0.25 | 72 | 1016.5 |
| 20260505201643 | 17 | 197 | 3.2 | 6.4 | 0.00 | 0.25 | 0.25 | 72 | 1016.2 |
| 20260505201141 | 18 | 182 | 1.6 | 6.4 | 0.00 | 0.25 | 0.25 | 70 | 1016.3 |
| 20260505200639 | 19 | 206 | 3.2 | 4.8 | 0.00 | 0.25 | 0.25 | 68 | 1016.1 |
| 20260505200136 | 18 | 167 | 1.6 | 4.8 | 0.00 | 0.25 | 0.25 | 71 | 1016.1 |
| 20260505195632 | 18 | 153 | 3.2 | 4.8 | 0.00 | 0.25 | 0.25 | 70 | 1016.3 |
| 20260505195129 | 18 | 208 | 3.2 | 11.3 | 0.00 | 0.25 | 0.25 | 70 | 1016.2 |
| 20260505194626 | 18 | 252 | 1.6 | 9.7 | 0.00 | 0.25 | 0.25 | 70 | 1016.3 |
| 20260505194122 | 18 | 253 | 3.2 | 4.8 | 0.00 | 0.25 | 0.25 | 70 | 1016.2 |
| 20260505193619 | 17 | 235 | 1.6 | 9.7 | 0.00 | 0.25 | 0.25 | 71 | 1016.2 |
| 20260505193116 | 17 | 232 | 3.2 | 4.8 | 0.00 | 0.25 | 0.25 | 73 | 1016.4 |
| 20260505192615 | 17 | 230 | 4.8 | 9.7 | 0.00 | 0.25 | 0.25 | 72 | 1016.5 |
| 20260505192112 | 17 | 197 | 1.6 | 4.8 | 0.00 | 0.25 | 0.25 | 73 | 1016.3 |
| 20260505191610 | 17 | 166 | 1.6 | 6.4 | 0.00 | 0.25 | 0.25 | 73 | 1016.5 |
| 20260505191107 | 18 | 330 | 1.6 | 6.4 | 0.00 | 0.25 | 0.25 | 73 | 1016.4 |
| 20260505190603 | 17 | 0 | 3.2 | 9.7 | 0.00 | 0.25 | 0.25 | 74 | 1016.1 |
| 20260505190058 | 16 | 228 | 1.6 | 6.4 | 0.00 | 0.25 | 0.25 | 76 | 1016.2 |
| 20260505185555 | 16 | 223 | 3.2 | 6.4 | 0.00 | 0.25 | 0.25 | 76 | 1016.3 |
| 20260505185052 | 16 | 272 | 1.6 | 6.4 | 0.00 | 0.25 | 0.25 | 76 | 1016.1 |
| 20260505184548 | 16 | 279 | 4.8 | 6.4 | 0.00 | 0.25 | 0.25 | 76 | 1016.1 |
| 20260505184045 | 16 | 253 | 1.6 | 6.4 | 0.00 | 0.25 | 0.25 | 76 | 1016.4 |
| 20260505183542 | 16 | 159 | 1.6 | 4.8 | 0.00 | 0.25 | 0.25 | 76 | 1016.3 |
| 20260505183039 | 17 | 226 | 1.6 | 4.8 | 0.00 | 0.25 | 0.25 | 76 | 1016.3 |
| 20260505182535 | 17 | 178 | 3.2 | 4.8 | 0.00 | 0.25 | 0.25 | 76 | 1016.2 |
| 20260505182032 | 16 | 189 | 1.6 | 4.8 | 0.00 | 0.25 | 0.25 | 77 | 1016.1 |
| 20260505181529 | 16 | 350 | 4.8 | 9.7 | 0.00 | 0.25 | 0.25 | 76 | 1016.2 |
| 20260505181027 | 17 | 236 | 4.8 | 4.8 | 0.00 | 0.25 | 0.25 | 77 | 1016.3 |
| 20260505180522 | 16 | 204 | 4.8 | 4.8 | 0.00 | 0.25 | 0.25 | 79 | 1016.0 |
| 20260505180020 | 16 | 151 | 0.0 | 3.2 | 0.00 | 0.25 | 0.25 | 80 | 1015.9 |
| 20260505175515 | 15 | 196 | 1.6 | 4.8 | 0.00 | 0.25 | 0.25 | 81 | 1016.0 |
| 20260505175012 | 15 | 205 | 3.2 | 3.2 | 0.00 | 0.25 | 0.25 | 84 | 1016.0 |
| 20260505174509 | 15 | 203 | 1.6 | 3.2 | 0.00 | 0.25 | 0.25 | 85 | 1015.9 |
| 20260505174005 | 15 | 207 | 4.8 | 6.4 | 0.00 | 0.25 | 0.25 | 86 | 1015.7 |
| 20260505173502 | 14 | 194 | 0.0 | 3.2 | 0.00 | 0.25 | 0.25 | 87 | 1015.9 |
| 20260505172958 | 14 | 207 | 1.6 | 4.8 | 0.00 | 0.25 | 0.25 | 88 | 1015.9 |
| 20260505172456 | 13 | 212 | 1.6 | 3.2 | 0.00 | 0.25 | 0.25 | 88 | 1016.0 |
| 20260505171951 | 13 | 282 | 4.8 | 9.7 | 0.00 | 0.25 | 0.25 | 88 | 1015.9 |
| 20260505171447 | 13 | 180 | 1.6 | 3.2 | 0.00 | 0.25 | 0.25 | 89 | 1015.8 |
| 20260505170944 | 13 | 186 | 1.6 | 4.8 | 0.00 | 0.25 | 0.25 | 89 | 1015.8 |
| 20260505170441 | 13 | 180 | 1.6 | 4.8 | 0.00 | 0.25 | 0.25 | 90 | 1015.8 |
| 20260505165936 | 13 | 221 | 1.6 | 3.2 | 0.00 | 0.25 | 0.25 | 90 | 1015.9 |
| 20260505165432 | 13 | 216 | 3.2 | 3.2 | 0.00 | 0.25 | 0.25 | 91 | 1015.8 |
| 20260505164928 | 13 | 186 | 1.6 | 6.4 | 0.00 | 0.25 | 0.25 | 91 | 1015.7 |
| 20260505164425 | 13 | 303 | 3.2 | 4.8 | 0.00 | 0.25 | 0.25 | 92 | 1015.9 |
| 20260505163923 | 13 | 182 | 1.6 | 1.6 | 0.00 | 0.25 | 0.25 | 92 | 1016.0 |
| 20260505163422 | 13 | 190 | 1.6 | 4.8 | 0.00 | 0.25 | 0.25 | 92 | 1015.9 |
| 20260505162920 | 13 | 184 | 1.6 | 6.4 | 0.00 | 0.25 | 0.25 | 93 | 1015.8 |
| 20260505162415 | 13 | 197 | 0.0 | 1.6 | 0.00 | 0.25 | 0.25 | 93 | 1015.7 |
| 20260505161913 | 13 | 194 | 0.0 | 3.2 | 0.00 | 0.25 | 0.25 | 93 | 1015.8 |
| 20260505161409 | 12 | 237 | 1.6 | 3.2 | 0.18 | 0.25 | 0.25 | 94 | 1015.7 |
| 20260505160907 | 12 | 192 | 0.0 | 3.2 | 0.18 | 0.25 | 0.25 | 94 | 1015.7 |
| 20260505160405 | 12 | 193 | 1.6 | 3.2 | 0.00 | 0.23 | 0.23 | 94 | 1015.7 |
| 20260505153343 | 12 | 236 | 1.6 | 3.2 | 0.00 | 0.23 | 0.23 | 94 | 1015.4 |
| 20260505152840 | 12 | 170 | 0.0 | 1.6 | 0.00 | 0.23 | 0.23 | 94 | 1015.5 |
| 20260505152337 | 12 | 180 | 1.6 | 6.4 | 0.00 | 0.23 | 0.23 | 94 | 1015.4 |
| 20260505151832 | 12 | 192 | 3.2 | 4.8 | 0.00 | 0.23 | 0.23 | 93 | 1015.4 |
| 20260505151328 | 12 | 212 | 3.2 | 4.8 | 0.00 | 0.23 | 0.23 | 93 | 1015.4 |
| 20260505150825 | 12 | 201 | 0.0 | 3.2 | 0.00 | 0.23 | 0.23 | 93 | 1015.1 |
| 20260505150322 | 12 | 172 | 0.0 | 1.6 | 0.00 | 0.23 | 0.23 | 93 | 1015.1 |
| 20260505140247 | 11 | 172 | 0.0 | 0.0 | 0.00 | 0.23 | 0.23 | 93 | 1014.8 |
| 20260505130211 | 11 | 165 | 0.0 | 0.0 | 0.00 | 0.23 | 0.23 | 94 | 1014.4 |
| 20260505124701 | 11 | 161 | 0.0 | 0.0 | 0.00 | 0.23 | 0.23 | 94 | 1014.8 |
| 20260505124157 | 11 | 170 | 0.0 | 0.0 | 0.00 | 0.23 | 0.23 | 94 | 1014.9 |
| 20260505123653 | 11 | 189 | 0.0 | 0.0 | 0.00 | 0.23 | 0.23 | 94 | 1014.7 |
| 20260505123150 | 11 | 174 | 0.0 | 1.6 | 0.00 | 0.23 | 0.23 | 94 | 1014.6 |
| 20260505122646 | 11 | 218 | 0.0 | 1.6 | 0.00 | 0.23 | 0.23 | 94 | 1014.8 |
| 20260505122143 | 11 | 178 | 0.0 | 3.2 | 0.00 | 0.23 | 0.23 | 94 | 1014.5 |
| 20260505121635 | 11 | 185 | 1.6 | 3.2 | 0.00 | 0.23 | 0.23 | 94 | 1014.6 |
| 20260505121132 | 11 | 213 | 0.0 | 6.4 | 0.00 | 0.23 | 0.23 | 94 | 1014.6 |
| 20260505120627 | 11 | 179 | 1.6 | 3.2 | 0.00 | 0.23 | 0.23 | 94 | 1014.5 |
| 20260505120123 | 11 | 184 | 1.6 | 3.2 | 0.00 | 0.23 | 0.23 | 94 | 1014.4 |
| 20260505115618 | 11 | 216 | 0.0 | 4.8 | 0.00 | 0.23 | 0.23 | 94 | 1014.4 |